CAPE
1 2 0 0 0 0 0 0 0 1 2 2 1 1 2 1 0 0 0 0 0 15 0 0 0 0 0 0 0 0 0 6 10 3 176 954 486 352 580 292 270 129 237 236 438
1 0 0 0 0 0 0 0 0 0 2 1 1 1 2 1 0 0 0 50 388 0 0 0 0 0 0 0 0 0 0 0 0 0 324 858 589 774 600 187 472 336 408 439 353
1 1 1 0 1 0 0 0 0 0 2 1 1 0 0 0 0 0 0 592 297 0 0 0 0 0 0 0 0 0 0 0 0 0 0 788 822 1040 554 232 299 332 460 411 636
1 1 1 1 0 0 0 0 0 0 2 1 1 0 0 0 0 0 8 220 0 0 0 0 0 0 0 0 0 0 0 0 0 0 0 467 921 843 735 497 478 267 533 483 689
1 2 2 1 2 0 0 0 0 0 2 1 0 0 0 0 0 0 0 0 0 0 0 0 0 0 0 0 0 0 0 0 0 0 0 296 698 779 871 569 525 265 723 659 692
1 6 2 1 1 0 0 0 0 1 1 1 0 0 0 0 0 0 0 0 0 0 0 0 0 0 0 0 0 0 0 0 0 0 0 43 368 209 422 735 676 616 788 755 722
1 7 2 2 0 0 0 0 1 1 1 0 1 0 0 0 0 0 0 0 0 0 0 0 0 0 0 0 0 0 0 0 0 0 0 34 72 233 306 828 694 590 614 785 721
2 4 6 3 1 0 0 1 1 1 0 0 0 0 0 0 0 0 0 0 0 0 0 0 0 0 0 0 0 0 0 0 0 0 0 0 0 0 432 816 765 641 607 538 574
2 6 1 1 1 0 1 0 1 0 0 0 0 0 0 0 0 0 0 0 0 0 0 0 0 0 0 0 0 0 0 0 0 0 0 0 0 115 391 693 771 729 719 377 371
2 2 3 1 1 1 0 0 0 0 0 0 0 0 0 0 0 0 0 0 0 0 0 0 0 0 0 0 0 0 0 0 0 0 0 0 0 133 284 382 389 401 271 480 478
3 7 5 1 1 0 0 0 0 0 0 0 0 0 0 0 0 0 0 0 0 0 0 0 0 0 0 0 0 0 0 0 0 0 0 0 0 52 135 92 71 0 10 222 407
2 5 2 1 0 0 0 0 0 0 0 0 0 0 0 0 0 0 0 0 0 0 0 0 0 0 0 0 0 0 0 0 0 0 0 0 0 0 48 59 0 0 183 641 421
7 6 2 1 0 0 0 0 0 0 0 0 0 0 0 0 0 0 0 0 0 0 0 0 0 0 0 0 0 0 0 0 0 0 0 0 0 0 0 0 0 1 252 602 716
7 6 1 0 0 0 0 0 0 0 0 0 0 0 0 0 0 0 0 0 0 0 0 0 0 0 0 0 0 0 0 0 0 0 0 0 0 0 0 0 6 26 50 220 603
11 4 1 0 0 0 0 0 0 0 0 0 0 0 0 0 0 0 0 0 0 0 0 0 0 0 0 0 0 0 0 0 0 0 0 0 0 0 0 0 0 3 27 12 25
9 7 0 0 0 0 0 0 0 0 0 0 0 0 0 0 0 0 0 0 0 0 0 0 0 0 0 0 0 0 0 0 0 0 0 0 0 0 0 0 2 1 2 14 55
0 1 0 0 0 0 0 0 0 0 0 0 0 0 0 0 0 0 0 0 0 0 0 0 0 0 0 0 0 0 0 0 0 0 0 0 0 0 0 20 18 11 25 92 141
0 0 0 0 0 0 0 0 0 0 0 0 0 0 0 0 0 0 0 0 0 0 0 0 0 0 0 0 0 0 0 0 0 0 0 0 0 0 0 16 16 21 51 149 254
0 0 0 0 0 0 0 0 0 0 0 0 0 0 0 0 0 0 0 0 0 0 0 0 0 0 0 0 0 0 0 0 0 0 0 0 0 0 3 43 2 4 0 92 93
0 0 0 0 0 0 0 0 0 0 0 0 0 0 0 0 0 0 0 0 0 0 0 0 0 0 0 0 0 0 0 0 0 0 0 0 0 0 1 32 0 0 0 0 0
0 0 0 0 0 0 0 0 0 0 0 0 0 0 0 0 0 0 0 0 0 0 0 0 0 0 0 0 0 0 0 0 0 0 0 0 0 0 0 0 4 0 0 0 0
0 1 0 0 0 0 0 0 0 0 0 0 0 0 0 0 0 0 0 0 0 0 0 0 0 0 0 0 0 0 0 0 0 0 0 0 0 0 0 0 2 0 0 0 633
0 0 0 0 0 0 0 0 0 0 0 0 0 0 0 0 0 0 0 0 0 0 0 0 0 0 0 0 0 0 0 0 0 0 0 0 0 0 0 0 0 0 0 334 1083
0 0 0 0 0 0 0 0 0 0 0 0 0 0 0 0 0 0 0 0 0 0 3 0 0 0 0 0 0 0 0 0 0 0 0 0 0 0 5 0 0 0 142 1097 1158
0 0 0 0 0 0 0 0 0 0 0 0 0 0 0 0 0 0 0 0 0 0 0 0 0 0 0 0 0 0 0 0 0 0 0 0 0 0 0 0 0 22 935 942 811
0 0 0 0 0 0 0 0 0 0 0 0 0 0 0 0 0 0 0 0 0 0 0 0 0 0 0 0 0 0 0 0 2 0 0 0 0 0 0 2 2 636 786 583 328
0 0 0 0 0 0 0 0 0 0 0 0 0 0 0 0 0 0 0 0 0 0 0 0 0 0 0 0 0 0 0 56 376 226 20 19 0 264 360 542 578 660 244 100 362
CIN
0 0 0 0 0 0 0 0 0 0 0 0 0 0 0 0 0 0 0 0 0 -125 0 0 0 0 0 0 0 0 0 -37 -19 -12 -105 -113 -113 -192 -178 -220 -204 -240 -220 -247 -244
0 0 0 0 0 0 0 0 0 0 0 0 0 0 0 0 0 0 0 -374 -572 0 0 0 0 0 0 0 0 0 0 0 0 0 -87 -107 -152 -162 -169 -238 -183 -215 -237 -277 -256
0 0 0 0 0 0 0 0 0 0 0 0 0 0 0 0 0 0 0 -521 -303 0 0 0 0 0 0 0 0 0 0 0 0 0 0 -132 -143 -151 -205 -257 -250 -248 -294 -293 -200
0 0 0 0 0 0 0 0 0 0 0 0 0 0 0 0 0 0 -611 -598 0 0 0 0 0 0 0 0 0 0 0 0 0 0 0 -141 -134 -130 -182 -153 -221 -336 -329 -318 -229
0 0 0 0 0 0 0 0 0 0 0 0 0 0 0 0 0 0 0 0 0 0 0 0 0 0 0 0 0 0 0 0 0 0 0 -162 -137 -135 -170 -306 -326 -410 -353 -326 -272
0 0 0 0 0 0 0 0 0 0 0 0 0 0 0 0 0 0 0 0 0 0 0 0 0 0 0 0 0 0 0 0 0 0 0 -105 -188 -186 -212 -339 -365 -374 -381 -336 -294
0 0 0 0 0 0 0 0 0 0 0 0 0 0 0 0 0 0 0 0 0 0 0 0 0 0 0 0 0 0 0 0 0 0 0 -184 -138 -145 -300 -326 -321 -324 -324 -292 -277
0 0 0 0 0 0 0 0 0 0 0 0 0 0 0 0 0 0 0 0 0 0 0 0 0 0 0 0 0 0 0 0 0 0 0 0 0 0 -382 -288 -270 -291 -264 -270 -269
0 0 0 0 0 0 0 0 0 0 0 0 0 0 0 0 0 0 0 0 0 0 0 0 0 0 0 0 0 0 0 0 0 0 0 0 0 -392 -436 -294 -221 -236 -217 -275 -276
0 0 0 0 0 0 0 0 0 0 0 0 0 0 0 0 0 0 0 0 0 0 0 0 0 0 0 0 0 0 0 0 0 0 0 0 0 -374 -381 -319 -277 -243 -278 -253 -272
0 -1 0 0 -1 0 0 0 0 0 0 0 0 0 0 0 0 0 0 0 0 0 0 0 0 0 0 0 0 0 0 0 0 0 0 0 -2 -340 -388 -434 -372 0 -133 -334 -314
0 0 0 0 0 0 0 0 0 0 0 0 0 0 0 0 0 0 0 0 0 0 0 0 0 0 0 0 0 0 0 0 0 0 0 0 0 0 -370 -446 0 0 -492 -374 -474
0 -1 -1 -1 0 0 0 0 0 0 0 0 0 0 0 0 0 0 0 0 0 0 0 0 0 0 0 0 0 0 0 0 0 0 0 0 0 0 0 0 0 -513 -474 -449 -413
-1 -1 -2 -1 0 0 0 0 0 0 0 0 0 0 0 0 0 0 0 0 0 0 0 0 0 0 0 0 0 0 0 0 0 0 0 0 0 0 0 0 -317 -457 -479 -534 -447
0 0 -2 0 0 0 0 0 0 0 0 0 0 0 0 0 0 0 0 0 0 0 0 0 0 0 0 0 0 0 0 0 0 0 0 0 0 0 0 0 0 -429 -448 -438 -528
0 0 -1 0 0 0 0 0 0 0 0 0 0 0 0 0 0 0 0 0 0 0 0 0 0 0 0 0 0 0 0 0 0 0 0 0 0 0 0 0 -435 -359 -341 -443 -455
-1 0 0 0 0 0 0 0 0 0 0 0 0 0 0 0 0 0 0 0 0 0 0 0 0 0 0 0 0 0 0 0 0 0 0 0 0 0 0 -557 -525 -493 -490 -405 -429
0 0 0 0 0 0 0 0 0 0 0 0 0 0 0 0 0 0 0 0 0 0 0 0 0 0 0 0 0 0 0 0 0 0 0 0 0 -16 0 -614 -675 -675 -566 -421 -387
0 0 0 0 0 0 0 0 0 0 0 0 0 0 0 0 0 0 0 0 0 0 0 0 0 0 0 0 0 0 0 0 0 0 0 0 0 0 -95 -630 -539 -545 0 -430 -524
0 0 0 0 0 0 0 0 0 0 0 0 0 0 0 0 0 0 0 0 0 0 0 0 0 0 0 0 0 0 0 0 0 0 0 0 0 0 -51 -283 0 0 0 0 0
0 0 0 0 0 0 0 0 0 0 0 0 0 0 0 0 0 0 0 0 0 0 0 0 0 0 0 0 0 0 0 0 0 0 0 0 0 0 0 0 -345 0 0 0 0
0 -172 0 0 0 0 0 0 0 0 0 0 0 0 0 0 0 0 0 0 0 0 0 0 0 0 0 0 0 0 0 0 0 0 0 0 0 0 0 0 -613 0 0 0 -468
0 0 0 0 0 0 0 0 0 0 0 0 0 0 0 0 0 0 0 0 0 0 0 0 0 0 0 0 0 0 0 0 0 0 0 0 0 0 0 0 0 0 0 -468 -360
0 0 0 0 0 0 0 0 0 0 0 0 0 0 0 0 0 0 0 0 0 0 -365 0 0 0 0 0 0 0 0 0 0 0 0 0 0 0 -517 0 0 0 -322 -303 -333
0 0 0 0 0 0 0 0 0 0 0 0 0 0 0 0 0 0 0 0 0 0 0 0 0 0 0 0 0 0 0 0 0 0 0 0 0 0 0 0 0 -555 -310 -282 -349
0 0 0 0 0 0 0 0 0 0 0 0 0 0 0 0 0 0 0 0 0 0 0 0 0 0 0 0 0 0 0 0 -4 -1 0 0 0 -13 0 -10 -9 -307 -280 -305 -372
0 0 0 0 0 0 0 0 0 0 0 0 0 0 0 0 0 0 0 0 0 0 0 0 0 0 0 0 0 0 0 -191 -199 -302 -384 -193 0 -400 -403 -377 -358 -306 -348 -405 -345
Wind_Speed
13 13 13 13 13 13 13 13 14 15 15 16 17 17 16 17 17 2 5 8 6 3 4 2 4 4 5 4 5 4 4 2 3 3 3 4 4 2 3 5 3 6 5 6 19
14 14 14 13 13 12 13 13 13 14 15 16 17 17 15 16 3 6 12 3 5 2 3 5 5 3 0 1 2 4 3 6 2 5 5 7 6 11 5 3 3 4 8 18 18
14 15 14 14 13 12 12 12 12 13 15 15 16 17 15 10 4 7 5 1 9 4 3 1 1 2 3 1 1 3 5 4 3 3 5 8 3 5 8 3 7 10 17 18 17
15 15 15 14 13 12 12 12 12 13 14 15 15 16 17 2 4 2 8 7 8 6 2 2 5 5 5 6 4 2 6 4 4 5 4 5 4 5 8 5 6 13 20 20 18
16 15 15 14 13 13 12 11 12 12 13 14 14 15 5 2 9 4 3 3 3 3 3 1 4 3 4 5 7 1 3 4 6 5 3 6 3 2 7 2 7 16 19 20 17
16 15 16 14 13 13 12 11 11 12 12 12 13 12 1 3 3 7 6 2 3 3 1 1 2 2 2 3 1 4 7 8 4 4 2 6 2 3 1 6 8 16 18 16 18
17 15 16 14 13 13 12 12 12 12 11 10 9 3 1 14 1 7 3 1 4 3 1 2 3 3 4 5 3 5 6 4 5 4 6 6 3 4 1 7 8 9 10 11 13
18 17 15 15 14 13 12 12 13 11 10 8 5 0 8 5 5 8 3 3 2 3 3 3 4 2 2 4 7 4 5 5 5 1 3 7 12 3 6 10 7 8 8 11 13
18 17 17 15 14 13 12 13 13 11 6 4 0 1 10 9 2 3 5 3 2 1 3 2 4 3 5 3 6 7 2 5 11 2 1 3 5 4 3 6 6 5 6 9 9
19 18 16 15 13 12 12 14 5 3 2 3 2 2 5 0 4 1 2 4 1 2 4 7 6 4 5 6 3 4 4 3 5 6 2 3 2 2 2 5 6 7 8 11 8
19 16 15 13 10 9 7 3 4 2 1 8 6 3 5 8 2 2 3 5 3 9 3 3 7 4 5 4 3 2 2 4 5 7 5 6 3 2 5 4 7 7 8 8 12
20 16 15 11 7 6 1 2 2 3 6 8 3 7 6 3 3 1 2 5 3 2 2 7 5 7 2 3 5 3 3 8 7 4 1 5 3 3 2 4 3 7 9 9 6
18 15 12 9 5 2 2 6 4 6 2 5 5 5 5 7 4 5 6 4 3 3 3 7 5 0 4 3 4 5 6 5 6 1 4 6 5 6 4 4 7 5 6 7 8
18 14 9 6 2 1 5 1 5 5 5 5 3 6 4 3 2 4 4 6 2 7 8 6 4 3 2 5 8 3 6 4 6 3 1 2 4 6 4 7 7 9 9 7 8
17 12 8 3 2 2 1 6 4 3 4 1 3 1 0 7 3 3 3 5 6 4 6 8 3 3 3 6 6 9 4 3 1 3 3 7 5 8 4 5 9 8 9 12 8
17 12 4 3 1 7 6 5 3 7 2 2 4 5 5 1 1 3 3 5 3 3 1 8 2 4 9 4 7 3 2 6 5 3 4 5 3 6 5 7 5 4 8 10 12
21 10 7 3 3 4 3 3 7 4 3 4 5 5 4 4 2 3 5 4 5 4 3 6 5 4 4 3 1 5 7 5 6 7 5 4 2 10 6 7 8 5 6 7 8
18 1 5 5 3 6 3 6 2 4 5 3 4 4 6 5 2 2 5 3 3 5 2 2 7 2 2 4 8 2 8 7 4 2 5 4 2 8 5 4 8 3 8 4 7
8 2 3 5 10 3 6 3 6 5 2 2 3 5 1 3 4 2 5 7 7 9 7 4 6 3 2 3 4 2 2 4 8 3 2 4 7 9 1 6 7 5 3 5 7
2 1 3 3 9 3 6 5 5 5 5 2 6 4 7 4 5 5 5 5 6 13 6 4 2 2 4 1 7 4 6 4 4 3 2 5 6 7 2 6 4 3 5 3 8
1 3 4 2 1 6 4 7 6 7 3 5 4 6 6 8 8 6 9 5 4 4 6 5 3 7 3 6 2 3 3 7 6 4 5 1 8 5 3 6 1 4 5 6 8
2 4 3 1 5 1 2 5 5 7 5 8 5 5 9 8 5 5 9 4 6 8 10 4 5 1 3 2 1 2 3 5 6 3 1 3 9 3 8 7 4 3 7 8 6
3 2 2 3 3 2 5 5 5 4 5 3 7 6 4 7 5 5 4 3 6 6 8 7 2 2 7 8 5 6 3 5 5 3 5 6 8 3 4 3 2 5 7 7 6
1 3 4 4 0 4 2 6 5 4 5 2 3 5 4 4 4 5 3 5 4 4 8 10 4 6 7 5 3 1 1 2 4 4 4 7 8 5 5 3 2 6 6 6 4
4 0 1 2 3 2 1 4 5 5 1 5 7 6 2 4 4 5 2 3 5 5 4 5 4 1 2 2 2 2 2 2 6 4 5 3 5 3 4 5 2 3 5 6 6
3 3 4 2 2 1 4 4 4 3 2 6 9 6 8 5 1 6 4 2 1 5 4 3 2 3 2 2 1 3 4 1 1 2 5 3 3 4 2 2 2 4 6 5 6
2 1 3 2 2 2 3 6 4 2 4 3 5 5 8 2 0 2 3 3 4 4 2 3 6 4 6 4 4 4 4 1 2 1 2 2 2 1 4 6 4 4 6 5 4
Wind_Direction
341 336 332 330 329 329 331 333 334 335 334 332 330 330 329 328 316 170 259 215 145 166 180 350 158 221 130 209 189 133 56 275 250 123 216 180 159 176 20 112 152 165 162 158 141
341 337 332 327 325 325 326 329 330 332 331 330 328 328 328 333 315 268 245 231 149 270 42 32 340 11 102 289 205 101 118 231 220 168 186 188 178 160 166 162 180 126 84 130 142
340 337 333 327 323 321 321 323 325 328 328 327 326 326 324 326 335 252 52 113 152 130 109 203 275 76 42 17 353 171 183 208 264 178 146 204 219 158 124 236 212 164 149 150 153
338 337 334 326 322 318 317 319 321 324 324 324 326 326 320 301 241 267 76 116 137 126 82 25 3 31 20 349 314 22 260 198 232 208 162 168 171 172 188 213 218 156 159 155 167
337 335 332 327 321 316 315 314 315 318 319 322 325 328 343 4 252 345 90 121 105 107 91 53 46 66 349 314 333 86 276 290 303 253 169 123 46 278 236 57 124 143 162 170 175
335 330 330 325 320 316 313 310 309 312 315 320 324 322 359 254 240 27 359 63 62 70 84 116 110 180 233 276 323 314 297 283 293 245 226 151 145 60 204 122 126 157 172 177 179
334 329 328 324 318 314 310 306 303 306 309 313 324 324 62 233 27 349 306 165 135 116 6 214 134 49 349 321 315 276 289 315 228 220 210 129 284 199 161 130 142 166 172 183 191
334 330 328 323 317 312 306 300 299 298 298 299 310 339 245 262 318 314 179 285 271 210 202 193 145 171 173 295 4 358 46 9 313 147 236 133 254 38 167 141 147 156 184 192 204
336 331 328 322 316 311 303 297 294 288 277 267 47 86 269 315 282 257 160 179 216 174 231 136 99 79 25 50 9 4 302 334 329 273 161 148 273 339 101 122 166 162 179 217 209
338 335 328 320 315 312 304 294 281 296 201 204 263 359 278 102 282 168 150 141 100 337 50 48 50 48 30 63 275 302 345 304 237 294 19 98 5 22 68 176 196 214 209 220 204
339 332 330 324 316 318 338 85 34 353 263 190 197 233 293 297 275 181 162 102 79 54 79 16 53 253 232 201 226 298 244 263 256 265 219 87 91 64 227 263 247 248 252 233 214
339 334 335 326 316 325 353 162 175 235 308 222 237 286 272 221 311 145 139 114 102 135 93 22 260 244 219 207 228 205 287 284 289 327 101 95 64 331 220 248 285 272 258 245 204
333 333 335 323 314 325 214 228 14 16 99 295 184 204 232 141 203 218 113 112 117 91 140 165 236 135 187 236 210 219 199 233 233 5 62 114 5 321 288 353 330 348 276 268 229
334 334 340 317 328 217 250 289 308 185 58 277 262 274 142 188 309 182 152 131 66 187 162 223 266 242 228 227 162 298 213 238 270 77 229 57 260 281 311 319 322 313 322 292 262
333 334 337 235 293 199 204 335 116 67 43 157 198 58 33 144 160 230 202 62 162 180 106 255 253 271 308 241 172 226 177 205 21 92 107 355 83 267 26 280 275 279 290 294 307
327 312 297 195 240 246 318 326 47 43 269 196 133 154 122 33 34 98 113 63 144 181 239 240 275 216 214 214 189 121 96 44 55 62 38 323 94 275 193 212 286 278 274 297 305
330 305 187 185 218 326 304 66 46 129 329 185 178 157 147 145 214 125 140 144 162 105 312 320 252 265 167 147 88 74 54 354 3 8 227 336 48 243 178 214 231 280 331 293 315
340 120 236 239 321 344 77 51 156 239 236 293 110 88 154 155 231 117 113 168 213 92 125 147 340 222 160 198 177 124 146 151 196 222 266 319 284 269 189 255 274 267 251 259 296
333 243 264 252 204 333 78 81 218 214 258 139 79 100 216 216 165 118 167 191 211 167 182 152 274 316 352 170 125 130 72 163 101 7 37 288 293 304 352 285 289 359 41 235 287
298 291 273 98 153 90 76 243 252 217 333 341 185 158 171 203 144 152 184 209 218 184 150 201 345 318 290 55 43 104 148 61 20 133 282 298 287 243 315 291 301 86 92 229 268
301 67 317 99 174 51 164 233 274 248 213 197 226 167 206 167 167 185 199 260 215 128 134 138 114 293 35 25 44 34 44 53 111 112 154 256 270 222 245 226 209 27 0 333 324
356 67 326 75 59 16 194 211 284 279 244 245 176 193 182 152 152 213 205 239 134 142 164 179 138 173 203 98 194 20 106 114 112 240 66 151 272 312 252 235 133 30 3 343 337
56 118 341 60 143 270 287 281 243 292 285 273 208 196 182 150 118 189 185 6 162 137 166 183 24 51 353 357 10 66 10 94 110 90 202 144 264 334 300 222 72 13 4 343 14
34 78 335 50 93 140 347 277 286 266 240 324 312 75 98 77 21 154 109 35 28 74 68 87 104 147 185 204 170 115 269 170 126 123 188 226 272 292 277 291 340 28 16 21 44
20 18 192 240 291 239 146 278 301 294 354 1 37 37 47 98 59 60 58 56 31 4 61 94 122 197 197 262 210 225 256 212 187 210 168 257 233 328 279 241 264 51 77 49 46
63 33 354 271 320 203 177 242 236 276 329 351 100 47 71 84 173 163 136 68 172 19 63 14 164 111 278 181 291 285 284 237 182 139 266 299 291 299 273 89 93 100 86 67 46
331 333 107 268 338 127 206 263 263 103 33 106 151 97 61 45 264 53 71 134 163 153 132 74 128 96 255 10 26 344 238 224 149 121 260 241 275 243 62 77 80 89 95 96 90